TimePDT,TemperatureF,Dew PointF,Humidity,Sea Level PressureIn,VisibilityMPH,Wind Direction,Wind SpeedMPH,Gust SpeedMPH,PrecipitationIn,Events,Conditions,WindDirDegrees,DateUTC
12:52 AM,50.0,37.9,63,29.85,-9999.0,NE,6.9,-,N/A,,Unknown,50,2013-06-18 07:52:00
1:52 AM,48.9,37.0,64,29.83,-9999.0,NE,6.9,-,N/A,,Unknown,50,2013-06-18 08:52:00
2:52 AM,48.0,35.1,61,29.83,-9999.0,NE,5.8,-,N/A,,Unknown,40,2013-06-18 09:52:00
3:52 AM,46.9,33.1,59,29.83,-9999.0,NE,5.8,-,N/A,,Unknown,50,2013-06-18 10:52:00
4:52 AM,46.9,33.1,59,29.82,-9999.0,NE,6.9,-,N/A,,Unknown,50,2013-06-18 11:52:00
5:52 AM,46.9,33.1,59,29.84,-9999.0,NNE,3.5,-,N/A,,Unknown,30,2013-06-18 12:52:00
6:52 AM,53.1,34.0,48,29.84,-9999.0,NE,5.8,-,N/A,,Unknown,50,2013-06-18 13:52:00
7:52 AM,66.0,36.0,33,29.84,-9999.0,Calm,Calm,-,N/A,,Unknown,0,2013-06-18 14:52:00
8:52 AM,75.9,33.1,21,29.83,-9999.0,South,6.9,-,N/A,,Unknown,180,2013-06-18 15:52:00
9:52 AM,80.1,28.9,15,29.83,-9999.0,SSW,13.8,-,N/A,,Unknown,210,2013-06-18 16:52:00
10:52 AM,82.0,30.9,16,29.83,-9999.0,SW,15.0,23.0,N/A,,Unknown,220,2013-06-18 17:52:00
11:52 AM,84.9,33.1,16,29.83,-9999.0,SW,17.3,24.2,N/A,,Unknown,230,2013-06-18 18:52:00
12:52 PM,84.0,39.0,20,29.82,-9999.0,SSW,16.1,-,N/A,,Unknown,200,2013-06-18 19:52:00
1:52 PM,84.0,44.1,25,29.81,-9999.0,SSW,21.9,27.6,N/A,,Unknown,210,2013-06-18 20:52:00
2:52 PM,84.9,43.0,23,29.80,-9999.0,SSW,20.7,27.6,N/A,,Unknown,210,2013-06-18 21:52:00
3:52 PM,82.9,39.9,22,29.80,-9999.0,SW,19.6,-,N/A,,Unknown,220,2013-06-18 22:52:00
4:52 PM,84.0,37.0,19,29.78,-9999.0,West,12.7,21.9,N/A,,Unknown,260,2013-06-18 23:52:00
5:52 PM,81.0,41.0,24,29.79,-9999.0,WSW,12.7,-,N/A,,Unknown,240,2013-06-19 00:52:00
6:52 PM,75.0,46.0,36,29.80,-9999.0,SW,11.5,-,N/A,,Unknown,220,2013-06-19 01:52:00
7:52 PM,68.0,48.0,49,29.80,-9999.0,SSW,11.5,-,N/A,,Unknown,210,2013-06-19 02:52:00
8:52 PM,64.0,48.9,58,29.79,-9999.0,SSW,8.1,-,N/A,,Unknown,210,2013-06-19 03:52:00
9:52 PM,59.0,48.0,67,29.80,-9999.0,Calm,Calm,-,N/A,,Unknown,0,2013-06-19 04:52:00
10:52 PM,55.0,44.1,67,29.80,-9999.0,Calm,Calm,-,N/A,,Unknown,0,2013-06-19 05:52:00
11:52 PM,52.0,43.0,71,29.79,-9999.0,Calm,Calm,-,N/A,,Unknown,0,2013-06-19 06:52:00